TIANWANG 1C (TW-1C)
1 40926U 15051B   18107.40691828  .00008676  00000-0  16718-3 0  9991
2 40926  97.1901 150.0519 0011602 132.4513 356.7813 15.48029653143903
TIANWANG 1B (TW-1B)
1 40927U 15051C   18107.44180608  .00008476  00000-0  17032-3 0  9993
2 40927  97.1991 149.9505 0011320 142.3232 331.6833 15.46822318143822
TIANWANG 1A (TW-1A)
1 40928U 15051D   18107.39996745  .00003444  00000-0  93002-4 0  9997
2 40928  97.1918 142.5821 0011926 171.5838 305.8609 15.38365912143434
LAPAN A2
1 40931U 15052B   18107.06545115  .00000678  00000-0  53230-5 0  9993
2 40931   5.9992 225.9228 0013628 226.9066 133.0019 14.76571814137950
LQSAT
1 40958U 15057A   18107.50549337  .00000035  00000-0  13127-4 0  9993
2 40958  97.9436 181.9699 0018307 166.7909 193.3787 14.73025468135913
CHUBUSAT 2
1 41338U 16012B   18107.02501497  .00000373  00000-0  22461-4 0  9996
2 41338  31.0043 342.2323 0013932 188.4225 171.6178 14.99955721118642
CHUBUSAT 3
1 41339U 16012C   18106.97990231  .00000412  00000-0  25411-4 0  9990
2 41339  31.0119 341.2016 0013761 195.1935 164.8253 15.00145530118626
OUFTI-1
1 41458U 16025C   18107.11979127  .00001334  00000-0  73658-4 0  9994
2 41458  98.1402 166.6912 0170481 353.0023   6.8861 15.04478094108253
E-STAR-2
1 41459U 16025D   18107.11607957  .00001597  00000-0  87552-4 0  9993
2 41459  98.1427 166.5521 0171531 353.5328   6.3721 15.04224585108249
AAUSAT 4
1 41460U 16025E   18107.15121711  .00002477  00000-0  13219-3 0  9994
2 41460  98.1376 167.0003 0162312 350.1127   9.6927 15.05596345108300
NUSAT 1
1 41557U 16033B   18107.20813571  .00001444  00000-0  55198-4 0  9994
2 41557  97.4373 191.5390 0014230  20.0935 340.0861 15.28183944104848
BEESAT 4
1 41619U 16040W   18107.12481604  .00001563  00000-0  71508-4 0  9995
2 41619  97.4207 171.1038 0013411  86.0242 274.2527 15.21935597 88805
PRATHAM
1 41783U 16059A   18106.78492067  .00000084  00000-0  25705-4 0  9998
2 41783  98.1236 169.3170 0032260 289.0949  70.6761 14.62913138 82987
ALSAT 1N
1 41789U 16059G   18107.40894363  .00000089  00000-0  26082-4 0  9993
2 41789  98.1244 171.0305 0027021 280.0953  79.7200 14.64142510 83122
NAYIF 1
1 42017U 17008BX  18106.91620662 +.00001638 +00000-0 +70112-4 0  9991
2 42017 097.4536 172.3271 0005256 224.1404 135.9414 15.24236625064731
LILACSAT-1
1 42725U 98067ME  18107.56492338  .00020658  00000-0  19844-3 0  9997
2 42725  51.6363 306.6614 0003608   4.2863 355.8163 15.66561819 51007
MAX VALIER SAT
1 42778U 17036P   18107.46774500  .00001033  00000-0  49424-4 0  9999
2 42778  97.4096 168.1729 0010981 283.9767  76.0247 15.21168876 45279
